Lexington, NE

2:02 AM CST on January 20, 2018 (GMT -0600)
Kelly

Weather History for KLXN - February, 2013

Change the Weather History Date:

Friday, February 15, 2013

  Actual Average Record
Temperature  
Mean Temperature 24 °F -  
Max Temperature 36 °F 41 °F 66 °F (2011)
Min Temperature 12 °F 19 °F -9 °F (2007)
Degree Days  
Heating Degree Days 41    
Moisture  
Dew Point 13 °F    
Average Humidity 71    
Maximum Humidity 90    
Minimum Humidity 33    
Precipitation  
Precipitation 0.00 in - - ()
Sea Level Pressure  
Sea Level Pressure 30.32 in    
Wind  
Wind Speed 8 mph (NW)    
Max Wind Speed 26 mph    
Max Gust Speed 33 mph    
Visibility 10 miles    
Events      
Averages and records for this station are not official NWS values.
T = Trace of Precipitation, MM = Missing Value Source: NWS Daily Summary

Daily Weather History Graph

Daily Weather History Graph

Search for Another Location

Airport or City:

Trip Planner

Search our weather history database for the weather conditions in past years. The results will help you decide how hot, cold, wet, or windy it might be!

Date:

Astronomy

Feb. 15, 2013 Rise Set
Actual Time 7:32 AM CST 6:14 PM CST
Civil Twilight 7:04 AM CST 6:42 PM CST
Nautical Twilight 6:32 AM CST 7:14 PM CST
Astronomical Twilight 6:00 AM CST 7:46 PM CST
Moon 10:07 AM CST (2/15) No Moon Set
Length of Visible Light 11h 37m
Length of Day
10h 41m
Waxing Crescent, 30% of the Moon is Illuminated
Feb 15
Waxing Crescent
Feb 17
First Quarter
Feb 25
Full
Mar 4
Last Quarter
Mar 11
New

Hourly Weather History & Observations

Time (CST) Temp. Windchill Dew Point Humidity Pressure Visibility Wind Dir Wind Speed Gust Speed Precip Events Conditions
12:15 AM 20.5 °F 14.0 °F 16.3 °F 84% 30.31 in 10.0 mi WNW 4.6 mph - N/A   Clear
12:35 AM 19.2 °F 14.1 °F 15.6 °F 86% 30.31 in 10.0 mi WNW 3.5 mph - N/A   Clear
12:55 AM 17.4 °F 10.4 °F 14.4 °F 88% 30.31 in 10.0 mi NW 4.6 mph - N/A   Clear
1:15 AM 17.1 °F 7.6 °F 14.4 °F 89% 30.32 in 10.0 mi WNW 6.9 mph - N/A   Clear
1:55 AM 15.6 °F 7.0 °F 13.1 °F 90% 30.32 in 10.0 mi West 5.8 mph - N/A   Clear
2:15 AM 15.4 °F 6.8 °F 12.7 °F 89% 30.32 in 10.0 mi WNW 5.8 mph - N/A   Clear
2:35 AM 15.3 °F 6.6 °F 12.4 °F 88% 30.32 in 10.0 mi NNW 5.8 mph - N/A   Clear
2:55 AM 15.3 °F 7.9 °F 12.6 °F 89% 30.33 in 10.0 mi WNW 4.6 mph - N/A   Clear
3:15 AM 16.0 °F 10.4 °F 13.5 °F 90% 30.32 in 10.0 mi NW 3.5 mph - N/A   Clear
3:35 AM 15.8 °F - 12.7 °F 88% 30.32 in 10.0 mi Calm Calm - N/A   Clear
3:55 AM 14.4 °F 8.6 °F 11.7 °F 89% 30.32 in 10.0 mi WNW 3.5 mph - N/A   Clear
4:15 AM 15.4 °F 5.6 °F 12.7 °F 89% 30.31 in 10.0 mi West 6.9 mph - N/A   Clear
4:35 AM 15.4 °F 6.8 °F 13.1 °F 90% 30.31 in 10.0 mi WNW 5.8 mph - N/A   Clear
4:55 AM 13.3 °F 7.3 °F 10.8 °F 90% 30.31 in 10.0 mi WNW 3.5 mph - N/A   Clear
5:15 AM 12.6 °F - 9.9 °F 89% 30.32 in 10.0 mi Calm Calm - N/A   Clear
5:35 AM 12.7 °F 6.7 °F 10.2 °F 90% 30.32 in 10.0 mi West 3.5 mph - N/A   Clear
5:55 AM 12.4 °F 3.1 °F 9.7 °F 89% 30.31 in 10.0 mi NW 5.8 mph - N/A   Clear
6:15 AM 13.3 °F 3.0 °F 10.6 °F 89% 30.32 in 10.0 mi WNW 6.9 mph - N/A   Clear
6:35 AM 13.8 °F 4.9 °F 11.3 °F 90% 30.32 in 10.0 mi NW 5.8 mph - N/A   Clear
6:55 AM 13.6 °F 4.6 °F 10.9 °F 89% 30.33 in 10.0 mi WNW 5.8 mph - N/A   Clear
7:15 AM 14.9 °F 5.0 °F 12.4 °F 90% 30.33 in 10.0 mi WNW 6.9 mph - N/A   Clear
7:35 AM 15.6 °F 7.0 °F 13.1 °F 90% 30.33 in 10.0 mi WNW 5.8 mph - N/A   Clear
7:55 AM 16.3 °F 9.2 °F 13.8 °F 90% 30.33 in 10.0 mi West 4.6 mph - N/A   Clear
8:15 AM 16.9 °F 11.5 °F 14.2 °F 89% 30.32 in 10.0 mi West 3.5 mph - N/A   Clear
8:35 AM 19.0 °F 13.9 °F 16.5 °F 90% 30.33 in 10.0 mi West 3.5 mph - N/A   Clear
8:55 AM 20.5 °F 11.7 °F 17.8 °F 89% 30.33 in 10.0 mi West 6.9 mph - N/A   Clear
9:15 AM 22.1 °F 10.6 °F 18.9 °F 87% 30.33 in 10.0 mi WNW 11.5 mph - N/A   Clear
9:35 AM 23.0 °F 14.7 °F 19.0 °F 85% 30.34 in 10.0 mi WNW 6.9 mph - N/A   Clear
9:55 AM 25.0 °F 14.2 °F 20.1 °F 82% 30.33 in 10.0 mi WNW 11.5 mph - N/A   Clear
10:15 AM 26.2 °F 16.4 °F 20.8 °F 80% 30.33 in 10.0 mi WNW 10.4 mph - N/A   Clear
10:35 AM 28.0 °F 19.3 °F 21.2 °F 76% 30.32 in 10.0 mi WNW 9.2 mph - N/A   Clear
10:55 AM 30.4 °F 20.5 °F 21.2 °F 69% 30.32 in 10.0 mi WNW 12.7 mph - N/A   Clear
11:15 AM 31.6 °F 23.1 °F 19.9 °F 62% 30.31 in 10.0 mi WNW 10.4 mph - N/A   Clear
11:55 AM 34.2 °F 24.0 °F 16.2 °F 48% 30.31 in 10.0 mi WNW 16.1 mph - N/A   Clear
12:15 PM 35.2 °F 25.4 °F 15.3 °F 44% 30.30 in 10.0 mi NW 16.1 mph 24.2 mph N/A   Scattered Clouds
12:35 PM 34.5 °F 24.1 °F 15.4 °F 46% 30.30 in 10.0 mi NW 17.3 mph 23.0 mph N/A   Overcast
12:55 PM 35.1 °F 24.5 °F 13.6 °F 41% 30.29 in 10.0 mi NNW 18.4 mph 29.9 mph N/A   Overcast
1:15 PM 36.3 °F 24.2 °F 12.6 °F 38% 30.29 in 10.0 mi NW 26.5 mph 31.1 mph N/A   Mostly Cloudy
1:35 PM 35.1 °F 23.0 °F 12.6 °F 40% 30.29 in 10.0 mi NW 24.2 mph 31.1 mph N/A   Overcast
1:55 PM 34.5 °F 22.0 °F 10.2 °F 37% 30.28 in 10.0 mi NW 25.3 mph 31.1 mph N/A   Mostly Cloudy
2:15 PM 35.2 °F 23.5 °F 9.9 °F 35% 30.28 in 10.0 mi NW 23.0 mph 31.1 mph N/A   Mostly Cloudy
2:35 PM 36.5 °F 24.7 °F 9.5 °F 33% 30.28 in 10.0 mi North 25.3 mph 33.4 mph N/A   Mostly Cloudy
2:55 PM 34.3 °F 22.6 °F 8.6 °F 34% 30.28 in 10.0 mi NNW 21.9 mph 26.5 mph N/A   Scattered Clouds
3:15 PM 36.1 °F 25.5 °F 9.5 °F 33% 30.28 in 10.0 mi North 19.6 mph 32.2 mph N/A   Mostly Cloudy
3:35 PM 33.8 °F 21.6 °F 9.5 °F 36% 30.29 in 10.0 mi North 23.0 mph 28.8 mph N/A   Overcast
3:55 PM 32.9 °F 20.7 °F 10.0 °F 39% 30.30 in 10.0 mi NNW 21.9 mph 26.5 mph N/A   Overcast
4:15 PM 31.8 °F 19.3 °F 10.2 °F 41% 30.31 in 10.0 mi North 21.9 mph 27.6 mph N/A   Mostly Cloudy
4:35 PM 31.5 °F 20.5 °F 10.4 °F 42% 30.31 in 10.0 mi North 16.1 mph - N/A   Mostly Cloudy
4:55 PM 30.7 °F 18.8 °F 11.8 °F 46% 30.32 in 10.0 mi North 18.4 mph 25.3 mph N/A   Mostly Cloudy
5:15 PM 31.1 °F 18.9 °F 10.9 °F 43% 30.32 in 10.0 mi North 19.6 mph 25.3 mph N/A   Scattered Clouds
5:35 PM 30.7 °F 19.6 °F 10.2 °F 42% 30.32 in 10.0 mi North 16.1 mph 24.2 mph N/A   Scattered Clouds
5:55 PM 29.5 °F 17.6 °F 9.5 °F 43% 30.33 in 10.0 mi North 17.3 mph - N/A   Mostly Cloudy
6:15 PM 27.7 °F 18.2 °F 10.2 °F 48% 30.33 in 10.0 mi North 10.4 mph - N/A   Scattered Clouds
6:35 PM 24.6 °F 16.7 °F 10.8 °F 56% 30.33 in 10.0 mi North 6.9 mph - N/A   Scattered Clouds
6:55 PM 22.6 °F 14.3 °F 10.4 °F 59% 30.32 in 10.0 mi North 6.9 mph - N/A   Clear
7:15 PM 21.4 °F 13.8 °F 10.6 °F 63% 30.33 in 10.0 mi North 5.8 mph - N/A   Clear
7:35 PM 20.3 °F 13.8 °F 10.9 °F 67% 30.33 in 10.0 mi NW 4.6 mph - N/A   Clear
7:55 PM 19.2 °F 11.3 °F 11.3 °F 71% 30.33 in 10.0 mi NNW 5.8 mph - N/A   Clear
8:15 PM 16.7 °F 8.3 °F 10.9 °F 78% 30.33 in 10.0 mi NW 5.8 mph - N/A   Clear
8:35 PM 16.5 °F 9.4 °F 10.4 °F 77% 30.32 in 10.0 mi NW 4.6 mph - N/A   Clear
8:55 PM 16.7 °F 11.2 °F 11.3 °F 79% 30.33 in 10.0 mi WNW 3.5 mph - N/A   Clear
9:15 PM 17.2 °F 8.9 °F 11.1 °F 77% 30.33 in 10.0 mi West 5.8 mph - N/A   Clear
9:35 PM 17.4 °F 9.1 °F 10.9 °F 76% 30.34 in 10.0 mi NW 5.8 mph - N/A   Clear
9:55 PM 14.9 °F 7.5 °F 9.7 °F 80% 30.32 in 10.0 mi NW 4.6 mph - N/A   Clear
10:15 PM 14.4 °F 5.5 °F 9.9 °F 82% 30.32 in 10.0 mi North 5.8 mph - N/A   Clear
10:35 PM 12.9 °F 2.6 °F 8.6 °F 83% 30.31 in 10.0 mi North 6.9 mph - N/A   Clear
10:55 PM 14.0 °F - 9.9 °F 84% 30.30 in 10.0 mi Calm Calm - N/A   Clear
11:15 PM 12.7 °F 6.7 °F 8.4 °F 83% 30.30 in 10.0 mi WSW 3.5 mph - N/A   Clear
11:35 PM 14.5 °F 5.7 °F 10.6 °F 84% 30.31 in 10.0 mi WSW 5.8 mph - N/A   Clear
11:55 PM 14.9 °F - 10.4 °F 82% 30.30 in 10.0 mi Calm Calm - N/A   Clear